Probability
20 23 25 25 23 21 20 19 19 16 12 12 16 20 21 18 14 17 19 12 4 1 0 0 0 0 0 0 0 0 0 0 0 0 0 0 0 0
21 23 25 24 22 21 21 20 20 18 16 15 17 20 20 16 14 17 19 13 5 1 0 0 0 0 0 0 0 0 0 0 0 0 0 0 0 0
20 20 22 22 21 20 21 22 21 20 18 17 18 21 21 19 17 19 18 14 8 3 0 0 0 0 0 0 0 0 0 0 0 0 0 0 0 0
19 18 19 20 20 20 22 23 22 20 17 16 18 21 23 23 22 21 17 15 11 5 1 0 0 0 0 0 0 0 0 0 0 0 0 0 0 0
23 21 19 21 22 22 24 25 23 20 17 16 18 21 24 24 23 20 17 16 12 7 3 1 0 0 0 0 0 0 0 0 0 0 0 0 0 0
26 24 22 22 24 22 22 23 23 20 18 18 20 24 26 25 22 19 18 18 15 10 7 4 1 1 0 0 0 0 0 0 0 0 0 0 0 0
25 24 23 23 23 20 17 19 20 19 18 19 22 25 27 24 21 19 18 18 16 12 10 7 4 3 2 1 0 0 0 0 0 0 0 0 0 0
25 24 22 22 22 19 17 16 16 16 17 18 21 23 24 22 20 19 18 17 15 13 12 9 6 5 5 3 2 0 0 0 0 0 0 0 0 0
26 26 24 23 23 23 20 18 15 13 14 16 18 20 21 21 19 19 18 16 15 15 13 9 7 7 6 5 4 1 0 0 0 0 0 0 0 0
26 27 27 25 24 24 24 22 19 14 12 13 14 16 16 17 17 17 15 14 15 16 13 9 7 7 6 6 5 1 0 0 0 0 0 0 0 0
26 24 24 24 22 21 22 23 22 18 13 10 9 10 9 10 12 13 13 13 13 15 14 11 8 6 6 6 4 1 0 0 0 0 0 0 0 0
25 23 20 20 18 17 19 21 22 21 17 12 9 9 8 9 11 13 15 16 16 16 15 12 9 6 5 5 3 2 0 0 0 0 0 0 0 0
23 22 19 15 12 12 14 18 19 19 18 16 14 13 14 15 17 17 19 20 19 17 15 13 10 7 6 5 4 2 1 1 1 0 0 0 0 0
20 19 15 10 7 6 8 11 12 13 15 16 17 18 19 19 20 21 21 20 17 14 13 13 11 9 7 6 5 4 3 3 2 1 0 0 0 0
16 13 8 4 3 3 4 5 6 9 12 15 17 19 20 19 20 20 19 16 13 11 11 12 11 10 8 7 6 5 4 4 3 1 0 0 0 0
13 10 6 3 3 4 5 6 9 11 13 15 18 19 18 17 16 15 13 11 10 9 9 9 8 7 8 7 6 4 3 4 4 2 1 1 0 0
14 13 12 10 10 11 12 14 17 16 15 16 18 18 16 14 12 10 9 8 7 7 7 7 6 5 4 5 4 2 2 2 3 2 2 2 1 1
14 16 17 16 16 17 17 18 20 19 16 15 16 16 14 12 11 10 9 7 6 5 5 6 5 4 3 2 1 1 0 1 1 2 2 2 2 2
11 13 16 17 17 17 15 15 18 20 20 18 16 14 13 12 12 11 10 8 6 4 4 5 5 4 3 2 1 0 0 0 0 1 1 2 2 2
9 10 12 14 16 16 13 13 16 20 22 21 19 17 14 13 13 12 10 8 6 4 3 4 4 4 4 3 2 0 0 0 0 0 0 1 1 1
11 10 10 11 13 14 13 12 14 16 19 21 21 19 16 13 12 10 8 7 5 4 3 3 3 4 4 3 2 0 0 0 0 0 0 0 0 0
14 12 10 10 11 12 11 11 10 11 14 17 20 19 16 13 10 8 7 6 5 4 4 4 3 3 4 3 2 1 0 0 0 0 0 0 0 0
15 13 11 10 10 10 11 10 9 9 12 16 17 17 15 12 10 8 7 8 7 6 5 5 4 3 3 3 2 1 0 0 0 0 0 0 0 0
Wind_Speed
3 3 2 2 1 1 1 2 2 2 3 2 1 2 3 3 6 5 5 8 8 8 7 7 6 5 5 4 3 3 2 2 1 0 1 1 1 1
2 3 2 2 2 2 2 2 2 2 2 2 2 2 2 3 6 4 5 10 9 9 9 8 8 7 6 5 4 4 3 2 2 1 1 1 1 1
3 3 3 3 2 2 2 2 2 2 3 2 1 2 3 3 4 3 4 5 6 10 10 9 9 8 7 6 5 4 4 3 2 2 2 2 2 1
3 3 3 3 3 2 2 3 2 2 3 3 2 2 3 4 4 4 4 4 4 10 11 10 9 9 8 7 6 5 5 4 4 3 3 2 2 2
3 4 3 3 3 3 3 3 2 3 2 2 2 2 2 3 3 3 3 2 4 7 10 10 10 9 9 8 8 7 6 5 4 4 4 3 3 2
4 3 4 3 3 3 3 3 3 2 3 3 3 2 2 3 3 3 2 3 3 3 5 6 8 10 10 10 9 8 7 6 6 5 5 4 4 3
4 3 4 3 2 2 3 2 2 2 2 2 3 2 2 2 3 3 3 2 3 3 4 4 5 5 6 9 10 10 9 9 8 7 7 6 5 5
4 4 4 3 3 3 4 3 4 4 3 3 3 3 3 3 2 3 3 3 3 3 4 4 4 5 5 6 9 12 12 10 10 9 8 8 7 6
4 4 5 4 3 3 4 5 5 6 6 4 5 5 3 3 3 4 4 4 4 3 4 4 4 4 4 5 10 12 12 12 12 10 10 9 8 7
4 4 3 2 2 2 3 4 4 4 5 5 5 4 3 2 3 4 4 4 3 3 3 3 3 4 4 4 9 12 13 13 13 12 11 10 9 8
4 3 3 2 2 2 3 4 4 4 4 4 4 4 4 4 4 3 4 4 4 3 3 2 2 2 2 3 6 12 13 13 13 12 11 10 9 7
3 3 3 3 3 3 4 4 5 4 4 3 3 4 5 5 6 5 5 4 3 3 3 3 3 2 2 3 3 5 7 9 11 11 11 11 10 6
4 3 3 4 5 6 6 5 6 5 3 4 4 4 3 3 4 4 4 4 4 3 2 3 3 3 2 2 2 4 5 5 6 6 9 10 11 9
4 3 2 3 5 6 5 6 7 5 4 4 3 3 3 4 4 4 4 4 4 4 3 2 2 3 3 3 2 3 4 4 5 5 5 8 9 10
4 4 4 4 4 4 6 7 6 4 4 4 4 4 3 3 3 3 3 3 3 3 3 2 2 2 2 3 3 2 2 3 4 4 5 5 5 5
4 4 4 5 4 4 4 4 4 4 4 4 4 3 2 2 3 3 3 3 3 3 3 3 2 3 3 3 2 2 2 2 3 4 4 4 4 5
4 3 3 2 3 3 3 3 4 4 4 4 4 3 3 3 3 2 2 2 3 3 3 2 3 2 2 2 2 2 2 2 2 2 3 3 4 4
4 4 4 4 4 4 4 3 3 4 4 4 4 3 3 3 3 2 2 3 4 3 3 3 3 2 1 2 3 3 2 2 2 3 3 3 3 2
4 4 4 4 4 3 3 3 3 2 3 3 4 3 3 3 2 3 3 3 3 3 3 3 3 4 4 4 3 4 4 3 2 3 3 3 3 2
4 4 4 3 3 3 3 3 3 2 2 2 2 3 3 3 3 3 3 4 3 3 3 3 3 4 5 4 3 3 5 4 3 3 3 2 2 1
4 4 4 3 3 3 2 2 2 2 2 2 2 2 2 3 3 4 3 4 4 3 3 3 4 5 3 2 2 2 2 5 5 3 3 3 2 2
4 3 3 3 3 2 2 2 3 2 2 2 2 2 2 3 4 4 4 3 3 4 4 3 2 2 3 3 4 3 2 2 4 5 4 4 4 4
4 3 3 3 3 3 3 3 4 3 3 2 2 2 3 3 3 3 4 4 4 4 3 3 2 2 3 4 4 3 3 3 2 2 3 5 6 5
Wind_Direction
252 244 238 253 245 222 205 195 207 233 240 224 198 185 171 158 165 178 159 166 167 171 174 177 176 175 174 176 177 177 174 170 157 223 220 213 192 188
254 263 254 256 249 223 227 216 209 236 247 218 215 195 188 183 172 176 165 168 179 180 183 184 181 178 179 178 175 174 171 167 155 146 150 135 116 121
262 260 254 261 263 262 249 237 226 230 245 244 212 180 191 196 173 188 177 181 182 185 185 185 185 184 183 182 181 180 177 174 164 153 157 134 110 110
263 265 256 257 253 262 258 255 247 237 234 241 224 198 211 201 187 202 202 196 184 185 184 185 186 187 188 187 187 187 187 187 184 175 165 159 162 165
255 255 257 254 249 250 254 253 253 254 235 231 233 213 214 204 189 209 214 188 205 180 183 187 190 192 193 192 191 191 192 193 193 191 188 184 180 179
263 260 259 253 249 250 249 251 257 258 241 234 229 222 212 200 183 197 211 198 208 189 186 184 190 196 200 201 198 195 194 195 195 194 193 192 190 186
263 264 262 257 249 258 263 258 260 258 254 244 239 230 217 192 207 210 218 210 210 195 180 188 186 197 201 208 208 202 199 199 199 199 196 193 195 195
260 262 258 236 236 242 257 259 249 245 249 249 250 238 227 214 200 212 217 213 226 197 188 207 188 195 199 197 198 198 200 200 202 201 200 197 198 200
256 257 263 256 224 234 244 253 254 250 237 237 249 250 245 219 202 219 224 226 234 204 189 218 203 210 209 202 192 195 196 199 201 201 200 200 202 203
258 255 257 266 264 259 251 251 251 250 242 234 240 252 257 246 214 218 226 235 243 227 195 216 209 214 211 189 187 189 194 198 198 197 197 200 203 206
264 259 247 247 275 287 266 264 262 255 253 248 242 242 244 246 233 214 218 222 239 233 209 216 219 218 207 196 191 193 195 197 197 198 199 200 203 208
258 244 236 241 248 242 251 259 261 259 262 257 245 247 242 239 228 218 219 225 234 240 204 204 211 204 228 211 191 187 196 198 196 199 200 202 201 200
266 260 247 239 247 248 243 247 249 253 253 246 238 236 234 230 222 220 220 223 227 237 211 190 212 215 217 218 198 186 188 191 193 202 206 207 204 202
272 277 282 249 249 248 242 241 246 250 249 243 239 236 232 228 223 220 223 228 228 228 220 199 218 220 216 223 227 193 190 191 189 191 196 202 211 216
277 294 287 262 255 247 242 244 243 242 243 244 242 241 237 226 222 214 211 216 236 242 236 217 217 227 223 224 233 212 193 194 193 189 189 196 203 205
265 270 267 256 260 264 249 235 231 233 231 236 239 244 245 235 228 219 211 208 221 238 227 213 215 225 240 233 219 221 208 198 191 192 190 195 200 204
239 242 247 253 254 252 247 239 232 227 230 237 238 236 237 237 230 225 219 218 226 227 224 208 207 217 230 230 223 225 216 213 199 187 192 212 212 205
220 242 244 247 251 253 253 248 234 225 223 225 231 237 235 231 234 233 226 227 232 227 221 206 185 185 224 260 242 236 226 221 210 202 198 211 231 216
219 242 248 250 254 255 256 260 253 237 226 228 229 230 228 229 234 239 234 234 239 235 226 213 205 200 215 237 244 221 226 221 214 218 218 215 228 218
240 246 252 258 263 266 263 261 258 251 239 239 236 231 231 237 240 241 242 242 242 240 238 226 216 214 221 231 239 240 218 213 211 227 227 218 226 213
240 246 258 264 266 267 266 270 270 259 256 249 241 237 239 238 241 249 253 250 249 249 245 237 230 218 216 211 231 235 218 205 204 214 217 216 225 223
244 246 253 268 276 278 269 262 268 264 253 248 252 249 249 250 251 253 255 255 249 248 251 248 234 218 209 219 230 231 227 219 219 222 222 212 208 215
242 246 239 236 240 245 254 250 255 258 253 245 246 252 254 256 259 255 250 254 257 252 243 239 233 225 220 222 227 227 223 221 220 214 235 236 221 219